TimeEDT,TemperatureF,Dew PointF,Humidity,Sea Level PressureIn,VisibilityMPH,Wind Direction,Wind SpeedMPH,Gust SpeedMPH,PrecipitationIn,Events,Conditions,WindDirDegrees,DateUTC
12:15 AM,64.6,56.8,76,30.35,10.0,Calm,Calm,-,N/A,,Overcast,0,2013-06-22 04:15:00
12:35 AM,62.6,57.6,84,30.35,10.0,Calm,Calm,-,N/A,,Mostly Cloudy,0,2013-06-22 04:35:00
12:55 AM,62.6,57.7,84,30.35,10.0,Calm,Calm,-,N/A,,Overcast,0,2013-06-22 04:55:00
1:15 AM,63.0,57.4,82,30.34,10.0,Calm,Calm,-,N/A,,Overcast,0,2013-06-22 05:15:00
1:35 AM,62.6,56.1,79,30.33,10.0,Calm,Calm,-,N/A,,Scattered Clouds,0,2013-06-22 05:35:00
1:55 AM,61.7,56.5,83,30.33,10.0,Calm,Calm,-,N/A,,Clear,0,2013-06-22 05:55:00
2:15 AM,62.6,56.5,80,30.32,10.0,Calm,Calm,-,N/A,,Clear,0,2013-06-22 06:15:00
2:35 AM,58.8,55.6,89,30.32,2.0,Calm,Calm,-,N/A,,Clear,0,2013-06-22 06:35:00
2:55 AM,59.9,57.6,92,30.31,3.0,Calm,Calm,-,N/A,,Scattered Clouds,0,2013-06-22 06:55:00
3:15 AM,59.0,56.7,92,30.31,0.8,Calm,Calm,-,N/A,,Mostly Cloudy,0,2013-06-22 07:15:00
3:35 AM,58.6,56.5,93,30.31,1.0,Calm,Calm,-,N/A,,Overcast,0,2013-06-22 07:35:00
3:55 AM,56.7,54.7,93,30.31,0.5,Calm,Calm,-,N/A,Fog,Fog,0,2013-06-22 07:55:00
4:15 AM,56.5,54.5,93,30.31,0.2,Calm,Calm,-,N/A,Fog,Fog,0,2013-06-22 08:15:00
4:35 AM,56.5,54.5,93,30.31,0.5,Calm,Calm,-,N/A,Fog,Fog,0,2013-06-22 08:35:00
4:55 AM,55.6,53.6,93,30.32,0.2,Calm,Calm,-,N/A,Fog,Fog,0,2013-06-22 08:55:00
5:15 AM,55.2,53.4,94,30.32,0.8,Calm,Calm,-,N/A,,Overcast,0,2013-06-22 09:15:00
5:35 AM,54.5,52.7,94,30.33,0.2,Calm,Calm,-,N/A,Fog,Fog,0,2013-06-22 09:35:00
5:55 AM,53.8,52.0,94,30.33,0.2,Calm,Calm,-,N/A,Fog,Fog,0,2013-06-22 09:55:00
6:15 AM,53.6,51.8,94,30.33,0.2,Calm,Calm,-,N/A,Fog,Fog,0,2013-06-22 10:15:00
6:35 AM,53.6,51.8,94,30.34,0.8,Calm,Calm,-,N/A,,Mostly Cloudy,0,2013-06-22 10:35:00
6:55 AM,53.4,51.6,94,30.34,0.2,Calm,Calm,-,N/A,Fog,Fog,0,2013-06-22 10:55:00
7:15 AM,53.2,51.4,94,30.34,0.2,Calm,Calm,-,N/A,Fog,Fog,0,2013-06-22 11:15:00
7:35 AM,54.3,52.5,94,30.34,0.2,Calm,Calm,-,N/A,Fog,Fog,0,2013-06-22 11:35:00
7:55 AM,55.6,53.8,94,30.34,0.2,Calm,Calm,-,N/A,Fog,Fog,0,2013-06-22 11:55:00
8:15 AM,56.1,54.3,94,30.33,0.2,Calm,Calm,-,N/A,Fog,Fog,0,2013-06-22 12:15:00
8:35 AM,57.0,55.2,94,30.34,0.5,Calm,Calm,-,N/A,Fog,Fog,0,2013-06-22 12:35:00
8:55 AM,59.2,57.2,93,30.34,10.0,Calm,Calm,-,N/A,,Scattered Clouds,0,2013-06-22 12:55:00
9:15 AM,61.7,57.7,87,30.34,10.0,Calm,Calm,-,N/A,,Scattered Clouds,0,2013-06-22 13:15:00
9:35 AM,63.1,57.2,81,30.34,10.0,Calm,Calm,-,N/A,,Clear,0,2013-06-22 13:35:00
10:55 AM,69.1,54.7,60,30.34,-9999.0,Calm,Calm,-,N/A,,Unknown,0,2013-06-22 14:55:00
11:15 AM,68.7,56.3,64,30.34,10.0,ESE,3.5,-,N/A,,Scattered Clouds,120,2013-06-22 15:15:00
11:35 AM,68.7,54.3,60,30.34,10.0,Calm,Calm,-,N/A,,Clear,0,2013-06-22 15:35:00
11:55 AM,70.5,54.7,57,30.35,10.0,South,3.5,-,N/A,,Mostly Cloudy,170,2013-06-22 15:55:00
12:15 PM,70.5,52.3,52,30.35,10.0,Calm,Calm,-,N/A,,Scattered Clouds,0,2013-06-22 16:15:00
12:35 PM,71.8,54.5,54,30.35,10.0,NE,4.6,-,N/A,,Clear,50,2013-06-22 16:35:00
12:55 PM,72.9,49.1,43,30.34,10.0,WNW,3.5,-,N/A,,Clear,290,2013-06-22 16:55:00
1:15 PM,72.9,45.7,38,30.34,10.0,Calm,Calm,-,N/A,,Clear,0,2013-06-22 17:15:00
1:35 PM,72.7,52.7,49,30.33,10.0,Calm,Calm,-,N/A,,Clear,0,2013-06-22 17:35:00
1:55 PM,72.9,53.1,50,30.33,10.0,Calm,Calm,-,N/A,,Clear,0,2013-06-22 17:55:00
2:15 PM,74.8,47.8,38,30.32,10.0,North,3.5,-,N/A,,Clear,350,2013-06-22 18:15:00
2:35 PM,74.8,45.1,35,30.31,10.0,North,3.5,-,N/A,,Clear,360,2013-06-22 18:35:00
2:55 PM,74.8,48.7,40,30.31,10.0,ENE,5.8,-,N/A,,Clear,70,2013-06-22 18:55:00
3:15 PM,75.2,44.8,34,30.31,10.0,East,6.9,-,N/A,,Clear,80,2013-06-22 19:15:00
3:35 PM,75.6,44.1,32,30.30,10.0,ENE,4.6,-,N/A,,Clear,70,2013-06-22 19:35:00
3:55 PM,76.1,41.7,29,30.29,10.0,ENE,3.5,-,N/A,,Clear,70,2013-06-22 19:55:00
4:15 PM,76.6,38.3,25,30.29,10.0,Calm,Calm,-,N/A,,Clear,0,2013-06-22 20:15:00
4:35 PM,76.1,46.0,34,30.27,10.0,East,6.9,-,N/A,,Clear,80,2013-06-22 20:35:00
4:55 PM,75.7,43.7,32,30.27,10.0,Calm,Calm,-,N/A,,Clear,0,2013-06-22 20:55:00
5:15 PM,76.3,44.1,32,30.26,10.0,ENE,6.9,-,N/A,,Clear,60,2013-06-22 21:15:00
5:35 PM,76.3,46.0,34,30.26,10.0,East,3.5,-,N/A,,Clear,80,2013-06-22 21:35:00
5:55 PM,76.1,44.4,32,30.25,10.0,NNE,3.5,-,N/A,,Clear,30,2013-06-22 21:55:00
6:15 PM,76.6,49.5,38,30.25,10.0,SE,4.6,-,N/A,,Clear,130,2013-06-22 22:15:00
6:35 PM,74.1,58.1,57,30.25,10.0,SE,4.6,-,N/A,,Scattered Clouds,130,2013-06-22 22:35:00
6:55 PM,72.1,58.5,62,30.26,10.0,ESE,3.5,-,N/A,,Scattered Clouds,120,2013-06-22 22:55:00
7:15 PM,71.6,57.9,62,30.26,10.0,SSE,3.5,-,N/A,,Clear,150,2013-06-22 23:15:00
7:35 PM,71.4,57.9,62,30.26,10.0,SE,3.5,-,N/A,,Scattered Clouds,140,2013-06-22 23:35:00
7:55 PM,70.7,57.4,63,30.26,10.0,SE,3.5,-,N/A,,Scattered Clouds,140,2013-06-22 23:55:00
8:15 PM,69.8,56.5,63,30.26,10.0,Calm,Calm,-,N/A,,Clear,0,2013-06-23 00:15:00
8:35 PM,68.0,56.7,67,30.26,10.0,Calm,Calm,-,N/A,,Clear,0,2013-06-23 00:35:00
8:55 PM,67.3,56.3,68,30.26,10.0,Calm,Calm,-,N/A,,Clear,0,2013-06-23 00:55:00
9:15 PM,67.3,55.9,67,30.26,10.0,Calm,Calm,-,N/A,,Clear,0,2013-06-23 01:15:00
9:35 PM,66.7,56.3,69,30.27,10.0,Calm,Calm,-,N/A,,Clear,0,2013-06-23 01:35:00
9:55 PM,67.5,55.9,66,30.28,10.0,Calm,Calm,-,N/A,,Clear,0,2013-06-23 01:55:00
10:15 PM,66.2,56.1,70,30.29,10.0,Calm,Calm,-,N/A,,Clear,0,2013-06-23 02:15:00
10:35 PM,66.2,55.9,69,30.30,10.0,Calm,Calm,-,N/A,,Clear,0,2013-06-23 02:35:00
10:55 PM,66.4,55.9,69,30.30,10.0,Calm,Calm,-,N/A,,Clear,0,2013-06-23 02:55:00
11:15 PM,66.2,55.9,69,30.30,10.0,Calm,Calm,-,N/A,,Scattered Clouds,0,2013-06-23 03:15:00
11:35 PM,66.2,56.3,70,30.30,10.0,Calm,Calm,-,N/A,,Scattered Clouds,0,2013-06-23 03:35:00
11:55 PM,64.4,57.2,77,30.30,10.0,Calm,Calm,-,N/A,,Clear,0,2013-06-23 03:55:00